|
|
Asteroid 2012 KT42
(Preview)
Orbital elements:
2012 KT42 Earth MOID = 0.0001 AU
Epoch 2012 Mar. 14.0 TT = JDT 2456000.5 MPC
M 276.07228 (2000.0) P Q
n 0.63335661 Peri. 94.63324 +0.94927348 +0.31440030
a 1.3428799 Node 247.04223 -0.29089600 +0.87115523
e 0.5189153 Incl. 0.35369 -0.11941263 +0.37714853
P 1.56 H 28.8 G...
|
Blobrana
|
2
|
|
|
|
|
Asteroid 2012 QE50
(Preview)
Orbital elements:
2012 QE50 PHA, Earth MOID = 0.0458 AU
Epoch 2012 Sept. 30.0 TT = JDT 2456200.5 MPC
M 342.20148 (2000.0) P Q
n 0.42624316 Peri. 224.42898 +0.52546284 -0.84931229
a 1.7486294 Node 194.12106 +0.82689147 +0.52378021
e 0.4452083 Incl. 11.96315 +0.20034794 +0.06574894
P 2.3...
|
Blobrana
|
2
|
|
|
|
|
Asteroid 2012 KF25
(Preview)
Orbital elements:
2012 KF25 Earth MOID = 0.0201 AU
Epoch 2012 Mar. 14.0 TT = JDT 2456000.5 MPC
M 131.47660 (2000.0) P Q
n 1.00201367 Peri. 336.46671 +0.73377348 -0.62571133
a 0.9890546 Node 64.98161 +0.66047128 +0.56566045
e 0.0494609 Incl. 16.98366 +0.15922992 +0.53713461
P 0.98 H 25.3...
|
Blobrana
|
4
|
|
|
|
|
Asteroid 2012 UX68
(Preview)
Orbital elements:
2012 UX68 Earth MOID = 0.0056 AU
Epoch 2012 Sept. 30.0 TT = JDT 2456200.5 MPC
M 258.63281 (2000.0) P Q
n 0.86629072 Peri. 93.36892 -0.80550199 -0.58985577
a 1.0898338 Node 50.49307 +0.51020217 -0.73914037
e 0.2806540 Incl. 4.22869 +0.30143040 -0.32517947
P 1.14 H 24.2 G...
|
Blobrana
|
2
|
|
|
|
|
Asteroid 2007 VD12
(Preview)
Orbital elements:
2007 VD12 PHA, Earth MOID = 0.0111 AU
Epoch 2012 Sept. 30.0 TT = JDT 2456200.5 MPC
M 292.81242 (2000.0) P Q
n 0.80331827 Peri. 91.29081 -0.82922710 -0.43948360
a 1.1460695 Node 62.73852 +0.21430166 -0.82060890
e 0.3647017 Incl. 22.85833 +0.51619494 -0.36531521
P 1.23 H...
|
Blobrana
|
1
|
|
|
|
|
Asteroid 2012 RH10
(Preview)
Orbital elements:
2012 RH10 Earth MOID = 0.0752 AU
Epoch 2012 Sept. 30.0 TT = JDT 2456200.5 MPC
M 302.93268 (2000.0) P Q
n 0.80291177 Peri. 122.90536 -0.43052168 -0.90201442
a 1.1464563 Node 352.38703 +0.72643902 -0.32527578
e 0.4703467 Incl. 13.95727 +0.53566542 -0.28384089
P 1.23 H 22...
|
Blobrana
|
1
|
|
|
|
|
Asteroid 2012 HM
(Preview)
Orbital elements:
2012 HM Earth MOID = 0.0031 AU
Epoch 2012 Mar. 14.0 TT = JDT 2456000.5 MPC
M 286.90546 (2000.0) P Q
n 0.78446645 Peri. 233.07610 +0.03617090 +0.99639820
a 1.1643578 Node 39.21083 -0.87397380 +0.06875736
e 0.1953500 Incl. 6.96834 -0.48462508 -0.04962911
P 1.26 H 23.7 G 0....
|
Blobrana
|
1
|
|
|
|
|
Asteroid 2012 EA
(Preview)
Orbital elements:
2012 EA Earth MOID = 0.0069 AU
Epoch 2012 Mar. 14.0 TT = JDT 2456000.5 MPC
M 4.62590 (2000.0) P Q
n 0.48823879 Peri. 10.19774 -0.96288116 -0.26964752
a 1.5972805 Node 154.14889 +0.24563123 -0.89413289
e 0.3760289 Incl. 1.61002 +0.11191591 -0.35751445
P 2.02 H 26.9 G 0.15...
|
Blobrana
|
2
|
|
|
|
|
Asteroid 2012 FM35
(Preview)
Orbital elements:
2012 FM35 Earth MOID = 0.0077 AU
Epoch 2012 Mar. 14.0 TT = JDT 2456000.5 MPC
M 69.86253 (2000.0) P Q
n 0.96399498 Peri. 77.69699 -0.00630400 -0.99995329
a 1.0148913 Node 12.67105 +0.90399555 -0.00883065
e 0.1216271 Incl. 1.91390 +0.42749539 +0.00392790
P 1.02 H 26.6 G 0....
|
Blobrana
|
2
|
|
|
|
|
Asteroid (4581) Asclepius (1989 FC)
(Preview)
The 220 - 490 metre wide asteroid Asclepius will make a close pass (42.0 lunar distances, 0.1079 AU), travelling at 13.48 km/second, to the Earth-Moon system on the 16th August, 2012 @ 08:46 UT ±00:01. See more The Lunar Distance (LD), the distance between Earth and the Moon, equals 384,401 km, (or 0...
|
Blobrana
|
2
|
|
|
|
|
Asteroid 2012 FK15
(Preview)
Orbital elements:
2012 FK15 Earth MOID = 0.0489 AU
Epoch 2012 Mar. 14.0 TT = JDT 2456000.5 MPC
M 209.86012 (2000.0) P Q
n 0.99806141 Peri. 327.19091 +0.84554873 +0.53388104
a 0.9916640 Node 0.59386 -0.35547553 +0.56894794
e 0.0661941 Incl. 24.42831 -0.39835222 +0.62551521
P 0.99 H 26.5 G...
|
Blobrana
|
3
|
|
|
|
|
Asteroid 2012 US27
(Preview)
Orbital elements:
2012 US27
Epoch 2012 Sept. 30.0 TT = JDT 2456200.5 MPC
M 348.64545 (2000.0) P Q
n 0.08617972 Peri. 1.23803 +0.63902969 -0.60144933
a 5.0761290 Node 49.31685 +0.70016533 +0.19676627
e 0.6413514 Incl. 39.21895 +0.31844867 +0.77430081
P 11.44 H 15.5 G 0.15 U 8 MPEC 2012 - U4...
|
Blobrana
|
3
|
|
|
|
|
Asteroid 2012 KL45
(Preview)
Orbital elements:
2012 KL45 Earth MOID = 0.0867 AU
Epoch 2012 Mar. 14.0 TT = JDT 2456000.5 MPC
M 313.22040 (2000.0) P Q
n 0.47098465 Peri. 203.38206 +0.51735358 +0.74928916
a 1.6360562 Node 100.22445 -0.70379659 +0.64736184
e 0.3380849 Incl. 24.83994 -0.48684252 -0.13960085
P 2.09 H 18....
|
Blobrana
|
1
|
|
|
|
|
Asteroid 2012 DY43
(Preview)
Orbital elements:
2012 DY43 Earth MOID = 0.0370 AU
Epoch 2012 Mar. 14.0 TT = JDT 2456000.5 MPC
M 39.87353 (2000.0) P Q
n 0.52163728 Peri. 251.53812 +0.54634118 -0.83620601
a 1.5283529 Node 165.05685 +0.82115773 +0.52356705
e 0.6313311 Incl. 10.64961 +0.16495846 +0.16320863
P 1.89 H 24.0...
|
Blobrana
|
1
|
|
|
|
|
Asteroid 2012 LA11
(Preview)
Orbital elements:
2012 LA11 Earth MOID = 0.0064 AU
Epoch 2012 Mar. 14.0 TT = JDT 2456000.5 MPC
M 18.88198 (2000.0) P Q
n 1.01567225 Peri. 238.32854 -0.76532387 -0.63806089
a 0.9801676 Node 261.88244 +0.61568188 -0.68739938
e 0.1017896 Incl. 4.90244 +0.18765713 -0.34692996
P 0.97 H 26.1 G...
|
Blobrana
|
2
|
|
|